Theta_e
309 306 304 308 317 318 318 321 323 321 320 327 328 330 329 328 325 322 322 323 321 322 321 318 331 331 325 321 320 321 319 324 324 325 322 324 321 323 326 327 328 327 331 332 330
311 309 307 305 311 315 318 317 320 322 322 320 328 328 327 326 323 322 323 321 321 321 320 319 329 328 320 322 322 325 320 323 321 319 319 323 322 323 323 326 328 327 328 330 332
310 309 308 306 306 311 314 318 318 320 322 322 320 325 325 324 322 322 323 321 321 320 321 326 330 321 319 319 321 321 323 323 319 319 319 319 321 322 322 322 327 328 330 330 333
310 309 307 307 307 308 310 315 317 318 320 321 321 320 324 323 324 321 321 321 321 320 324 327 322 321 321 319 320 321 321 322 321 318 318 318 319 319 321 322 321 324 326 328 332
309 309 308 306 308 306 309 311 316 316 318 321 320 323 323 322 321 320 321 321 322 319 322 327 323 322 327 324 323 321 321 323 321 318 318 318 318 317 318 319 321 325 329 328 328
308 309 308 307 308 307 309 306 312 315 315 319 321 320 322 321 321 321 321 321 321 320 322 326 324 323 322 323 326 321 322 321 316 317 317 318 318 318 319 318 323 325 329 329 326
308 308 308 307 307 309 307 310 307 313 312 317 321 320 320 319 319 320 320 321 320 320 321 324 327 325 324 323 322 322 320 320 317 317 319 318 319 316 321 319 325 328 329 330 327
308 308 308 307 307 308 309 307 308 309 311 310 318 321 321 320 319 319 319 321 320 320 321 322 324 326 324 322 320 320 321 320 318 317 319 319 322 321 322 320 321 327 329 329 328
307 308 307 306 306 307 308 307 307 307 309 309 311 318 319 320 319 319 319 319 320 320 321 322 323 323 322 320 322 322 323 323 323 318 318 318 321 322 323 321 319 320 327 328 330
306 307 307 307 306 307 307 307 308 308 309 309 310 314 316 320 320 320 320 321 320 321 321 322 322 320 321 321 326 326 326 324 324 321 317 317 317 319 321 318 319 319 321 327 329
307 306 306 306 307 308 309 310 311 310 311 310 311 313 315 317 319 319 319 320 320 320 322 321 322 323 321 321 323 323 324 325 322 321 320 321 319 317 320 319 317 319 319 323 328
305 305 307 306 308 309 310 310 310 310 311 310 312 311 314 317 320 319 320 320 320 321 320 322 322 320 319 321 323 325 325 326 324 317 320 318 319 318 320 321 321 319 319 319 325
306 306 306 306 308 309 309 310 310 310 309 310 311 313 313 316 318 320 320 320 320 321 320 321 320 319 320 322 324 324 327 327 328 315 317 319 319 320 320 321 322 323 322 323 320
305 304 304 306 308 307 308 310 311 310 308 310 312 312 313 313 314 318 320 319 320 321 320 319 318 320 320 322 322 325 324 324 321 323 326 318 323 320 321 321 320 320 321 321 320
302 304 304 305 308 307 307 309 311 310 310 308 312 312 313 314 314 315 320 319 320 320 319 321 318 319 321 321 321 322 322 320 321 320 322 323 323 320 318 320 320 322 322 321 320
300 302 304 305 306 307 307 308 310 310 311 312 312 313 313 313 313 317 317 320 320 319 319 318 317 318 320 319 319 316 319 319 319 321 326 323 324 322 321 321 319 320 324 324 322
302 304 305 305 306 306 307 308 309 312 308 311 313 314 313 314 313 317 319 319 322 321 321 319 319 316 319 319 318 320 323 324 325 326 324 319 322 324 318 317 317 319 319 323 324
304 305 306 305 307 306 307 310 310 308 308 307 313 312 313 312 313 315 318 318 319 319 320 320 320 318 317 321 320 322 322 318 320 321 318 312 320 319 319 320 320 321 321 319 318
306 306 306 306 307 307 308 307 309 305 308 308 312 314 313 313 312 315 314 319 319 319 321 319 319 315 317 316 319 320 323 315 313 302 312 314 314 314 314 315 314 314 314 317 317
301 301 302 303 304 305 303 306 304 305 307 307 313 314 315 314 314 315 315 318 319 318 315 315 318 315 313 317 316 319 317 321 314 315 318 316 315 316 314 315 313 312 314 315 314
300 301 302 301 303 303 303 296 300 305 306 306 309 312 315 315 313 314 314 314 318 318 313 314 316 314 314 319 320 319 320 318 318 315 317 316 315 311 312 315 313 310 312 312 313
298 295 301 302 303 302 298 297 302 303 304 307 306 307 308 315 316 316 315 315 316 317 315 314 314 316 319 310 312 317 319 320 321 319 315 314 315 310 309 309 308 309 310 311 310
300 301 303 303 303 302 300 302 303 302 304 307 307 305 306 310 316 317 317 315 316 317 315 312 314 316 314 314 312 318 318 319 315 313 317 316 315 308 306 306 309 310 311 311 312
300 301 301 302 302 299 298 301 302 304 304 304 306 306 307 307 311 316 318 317 317 317 314 312 313 316 319 318 316 319 319 319 314 314 314 318 314 307 307 307 307 310 311 311 313
300 297 301 302 301 303 302 302 303 303 304 304 304 305 306 307 307 317 318 317 317 317 313 312 313 312 313 314 315 316 317 319 318 316 317 317 314 308 307 306 308 311 311 314 314
300 300 299 300 301 302 303 303 304 304 306 306 306 305 306 306 307 316 318 318 319 315 315 311 314 310 308 312 315 316 316 318 318 318 317 314 314 312 310 312 310 312 313 314 313
299 299 301 301 302 303 302 302 303 303 304 306 307 307 308 308 307 307 316 317 317 316 316 313 310 310 307 309 311 312 316 317 317 317 317 316 315 310 310 310 312 314 313 312 312
Wind_Speed
29 31 31 32 28 25 25 23 24 22 24 20 18 23 31 28 25 21 23 18 17 8 10 11 11 8 8 6 4 2 3 3 5 1 3 7 3 5 8 10 6 3 4 3 23
32 29 30 29 28 29 23 24 24 23 22 25 19 21 26 27 23 26 22 22 14 16 10 11 13 8 5 4 3 3 3 5 1 3 4 6 5 7 5 10 4 5 4 9 28
35 32 29 29 28 27 28 23 24 24 22 20 28 23 14 15 10 12 20 20 19 11 14 10 12 11 5 5 5 5 5 2 3 10 9 4 5 6 6 4 10 14 15 18 32
36 34 33 29 28 27 27 26 23 23 22 20 19 19 16 19 6 2 15 24 15 16 15 15 13 9 4 4 6 3 9 9 4 4 6 6 7 4 7 4 4 11 14 21 32
37 36 34 31 30 29 27 28 23 22 23 21 23 24 26 11 11 13 4 20 17 14 20 19 18 11 5 6 2 4 5 5 8 8 7 7 3 3 6 7 6 11 20 21 26
38 36 34 33 31 29 28 28 27 21 23 22 24 27 27 24 29 19 4 1 10 17 21 22 15 16 9 6 9 5 13 5 9 10 5 3 3 5 1 9 10 15 22 19 21
37 36 35 33 31 29 29 27 29 25 20 23 22 26 28 32 12 28 18 16 2 17 22 22 10 17 6 2 4 10 2 5 7 6 2 5 6 6 11 6 18 18 19 17 18
37 37 35 32 31 30 28 28 26 29 23 20 21 27 16 23 12 18 30 22 14 14 22 19 16 15 6 3 2 3 0 4 4 7 5 8 6 7 17 16 19 21 19 18 19
37 37 35 33 30 28 27 27 26 26 23 20 20 20 8 16 32 24 28 31 12 13 21 16 14 6 7 6 2 2 3 4 3 16 5 6 4 10 19 18 18 18 24 23 21
40 38 36 33 30 29 28 27 25 22 22 18 15 9 18 24 35 33 24 26 23 17 19 15 8 4 4 5 10 3 3 3 7 6 6 5 7 8 4 18 18 17 23 30 28
40 38 37 33 31 32 29 26 22 15 35 18 15 6 12 18 23 35 29 26 29 23 10 8 7 14 11 11 5 8 6 10 6 7 6 16 6 11 24 15 16 17 19 26 33
41 38 35 35 32 32 31 32 41 8 13 27 9 30 11 17 19 29 33 23 21 16 19 4 17 12 8 6 7 6 8 9 3 3 6 5 10 9 15 17 25 26 25 20 31
38 35 34 35 30 32 37 41 34 15 6 20 30 19 24 17 12 31 44 14 29 23 24 20 15 15 12 9 14 10 7 8 5 2 3 2 6 7 11 24 29 34 35 31 27
36 34 34 36 31 32 32 31 34 23 2 5 18 17 21 23 8 26 47 27 9 25 27 17 8 22 16 18 13 15 6 4 7 7 5 5 5 5 6 10 15 25 31 29 31
36 34 36 41 26 35 31 26 33 24 6 10 16 16 25 19 15 25 43 33 20 15 12 18 24 22 21 23 17 6 8 5 3 3 1 3 1 6 7 5 10 23 36 35 33
35 36 38 37 28 36 26 27 22 6 8 6 15 18 20 24 12 12 31 32 24 13 21 2 20 13 18 11 12 8 7 6 3 2 6 8 6 5 6 9 7 14 26 36 38
34 36 38 38 30 28 31 28 5 6 5 5 12 20 29 17 20 13 22 29 10 11 16 5 7 11 25 9 8 9 13 2 4 4 9 6 8 13 7 9 7 6 9 19 30
36 36 36 37 28 33 37 11 9 5 7 1 9 22 24 20 24 18 19 27 18 10 15 13 8 15 10 21 12 22 15 5 7 5 5 1 8 6 17 29 22 17 14 10 14
36 33 32 29 29 32 27 11 5 5 7 10 1 18 20 18 11 19 14 33 19 20 14 13 6 4 4 7 14 8 14 6 5 2 2 5 6 9 7 9 10 14 11 13 11
38 32 29 28 24 25 4 9 4 3 3 5 8 10 19 23 17 27 18 17 18 24 6 7 6 2 2 9 1 12 12 7 1 5 5 5 4 5 7 11 8 9 13 10 9
34 13 22 26 23 13 4 5 4 3 8 5 2 6 11 17 29 24 27 6 22 22 8 13 6 3 6 10 19 7 12 4 5 5 5 3 6 7 11 15 9 5 11 14 12
19 4 25 30 4 3 4 7 6 6 13 4 3 2 3 17 27 25 30 18 33 26 17 5 6 10 13 4 4 7 11 11 8 8 3 2 5 3 7 8 19 15 17 16 18
14 9 27 31 7 5 2 5 4 5 7 8 9 12 6 7 13 17 26 31 49 29 21 9 5 9 3 5 4 18 12 19 3 3 10 5 5 0 4 12 21 25 21 19 15
13 5 6 19 4 5 4 4 6 14 5 13 4 7 6 14 19 17 12 15 48 38 28 12 7 16 20 33 10 19 23 20 4 5 4 15 4 4 7 11 14 20 19 15 10
6 4 9 9 12 9 10 8 11 7 13 11 10 17 11 9 19 13 14 12 26 31 8 7 7 8 4 7 16 22 19 21 19 14 11 16 13 15 13 11 21 21 18 13 8
8 6 8 2 15 16 9 10 10 11 9 11 17 17 17 15 21 9 18 17 17 17 21 4 8 5 2 12 18 24 26 26 29 27 23 4 13 7 18 21 21 23 20 13 9
9 12 11 8 10 9 16 18 17 11 10 25 16 15 17 27 25 36 35 24 26 24 25 15 7 5 2 7 10 5 31 32 30 24 30 19 17 9 8 9 22 24 19 12 10
Wind_Direction
228 227 227 223 223 226 222 220 222 219 218 216 222 223 218 211 210 206 200 199 211 201 221 211 203 204 205 191 215 37 65 228 242 297 162 145 95 79 98 120 98 105 136 172 162
227 226 226 224 222 222 223 219 219 219 215 212 202 208 198 200 201 210 199 193 194 220 224 206 200 190 172 195 201 158 152 220 111 100 145 124 110 145 134 129 111 152 154 149 162
227 227 226 224 224 220 221 218 216 216 216 216 215 206 198 190 209 227 212 198 201 202 220 197 188 179 160 166 191 191 213 278 36 124 118 123 123 145 144 207 193 191 168 164 169
224 223 226 225 224 221 217 220 214 212 214 209 210 222 202 170 201 129 224 207 191 205 201 182 177 163 147 184 209 246 238 247 248 174 127 144 140 129 210 224 164 216 186 169 176
223 223 222 222 220 220 218 217 213 209 211 207 201 195 194 177 193 101 96 182 211 200 206 185 183 182 179 199 260 244 276 306 234 168 135 148 162 192 228 225 218 176 185 181 185
222 220 220 219 218 218 218 217 214 206 205 207 204 205 205 215 226 223 245 107 208 209 214 191 197 186 199 195 173 263 224 231 183 165 148 140 208 193 232 192 177 180 189 189 196
219 220 220 218 217 213 215 215 214 207 204 206 207 207 215 222 227 227 238 229 230 227 217 205 183 189 190 195 221 232 220 189 200 179 195 204 286 217 222 217 173 181 189 201 207
217 217 218 215 214 211 211 212 213 209 205 205 204 212 228 227 207 200 217 225 222 215 218 223 222 206 177 147 47 132 42 149 220 178 227 166 246 256 237 210 182 185 198 213 214
214 214 214 213 212 208 207 206 205 206 205 206 204 209 229 192 205 213 222 218 201 212 217 223 224 180 157 114 52 294 169 184 211 196 165 184 237 255 250 222 198 198 200 215 218
211 211 209 210 207 202 201 199 195 195 195 204 210 196 226 197 200 202 203 203 188 180 220 244 176 128 168 165 210 176 174 232 208 219 190 200 242 274 276 194 202 206 210 210 215
204 207 208 202 200 196 186 177 175 195 193 178 201 171 148 203 205 201 197 192 184 182 191 201 181 203 206 203 190 162 196 204 232 231 162 223 217 237 256 239 230 218 221 212 215
202 202 201 199 198 193 188 187 191 210 190 211 236 207 200 169 169 188 181 169 169 182 177 150 216 194 152 211 233 220 199 221 269 153 173 237 245 234 241 240 236 228 224 224 217
193 196 197 192 192 189 194 201 189 172 160 207 206 199 196 185 192 186 183 198 178 188 188 196 205 160 189 192 211 231 236 204 206 203 315 357 277 232 240 238 239 236 238 240 227
191 189 187 183 183 186 196 195 189 179 119 200 193 220 194 207 231 203 192 172 187 195 190 216 176 179 193 205 191 206 194 191 148 148 223 185 277 287 236 242 233 232 229 230 228
187 185 184 186 179 184 188 184 180 178 207 195 174 191 186 181 169 214 196 195 182 174 170 199 180 184 197 201 189 208 145 124 107 110 17 243 249 264 244 250 240 232 235 231 230
183 183 181 185 189 194 177 177 162 203 210 142 146 168 162 188 208 165 193 218 197 178 201 130 189 177 197 187 177 151 95 60 56 88 243 207 199 240 219 239 240 225 235 237 233
175 177 180 181 184 187 177 165 199 221 160 190 173 169 177 180 189 189 192 206 177 176 177 148 193 177 179 142 151 145 158 146 209 216 239 220 201 245 234 231 210 217 228 232 233
169 169 174 176 174 174 174 191 216 136 179 222 171 183 186 173 198 188 208 202 199 197 157 154 187 178 174 190 174 180 173 152 179 205 222 304 229 251 225 239 243 252 242 217 208
161 163 168 169 164 169 168 210 197 173 162 140 117 176 196 196 167 195 228 197 190 186 160 170 201 151 187 134 159 178 197 144 105 40 98 210 276 307 261 231 218 217 212 228 231
157 159 171 170 171 180 173 196 187 195 106 64 198 204 190 195 201 189 189 213 188 191 190 162 112 184 139 122 58 183 161 167 117 154 237 253 248 227 219 238 224 222 218 240 238
153 131 172 175 170 159 197 222 184 165 125 153 167 237 206 195 197 191 203 213 198 192 192 150 118 191 165 202 186 165 192 188 130 162 177 178 253 218 204 211 200 160 156 147 149
141 103 168 169 156 168 167 182 172 165 197 158 169 260 268 216 195 197 199 188 205 193 178 182 124 161 189 5 267 194 190 189 188 210 214 179 271 291 210 155 143 143 140 141 140
116 109 171 171 188 183 221 199 197 169 186 186 211 195 202 281 185 191 206 206 184 201 174 171 144 136 125 3 335 203 189 199 95 85 209 144 244 306 127 120 150 144 146 146 154
134 131 146 193 218 166 140 223 201 215 230 214 261 174 220 253 285 199 201 190 182 194 178 130 168 180 190 203 136 190 199 199 153 189 170 223 169 218 180 150 163 154 159 168 180
122 188 165 179 208 205 182 195 204 215 208 213 246 226 201 234 269 195 184 193 185 190 159 135 163 175 114 152 173 181 180 189 210 203 201 223 204 200 191 172 175 175 179 181 204
132 145 168 140 183 198 205 214 204 210 191 224 228 224 205 215 220 277 185 184 181 173 176 219 165 123 85 173 167 183 194 195 211 209 228 121 223 194 188 176 177 179 185 201 201
158 145 155 158 186 188 209 211 220 217 253 231 214 222 217 221 211 237 223 181 162 169 185 182 135 121 194 151 111 185 200 197 211 205 217 215 216 187 201 176 178 187 191 187 198